Location: Navalespino
(40.5894°N, 4.2660°W)
Time: 12:44:50
(UTC+00:00)

USA 267 - Pass Details

Date: 18 April 2024
Orbit: 1100 x 1107 km, 123.0° (Epoch: 21 May)

Event Time Altitude Azimuth Distance (km) Brightness Sun altitude
Rises 19:21:10 0° 45° (NE) 3,923 5.9 -4.7°
Reaches altitude 10° 19:23:39 10° 43° (NE) 2,964 5.3 -5.1°
Maximum altitude 19:30:09 71° 322° (NW) 1,162 3.7 -6.3°
Drops below altitude 10° 19:36:38 10° 239° (WSW) 2,958 6.1 -7.4°
Sets 19:39:07 0° 238° (WSW) 3,914 6.7 -7.9°
